STARLINK-32404, 61710

Orbit data source: Space-Track

STARLINK-32404, 61710 is a payload satellite owned by SpaceX/Seattle (US) in LEO that was launched on Wed, 30 Oct 2024 UTC via an FALCON 9 launch vehicle from the Air Force Eastern Test Range (AFETR). Payload-class satellites include a variety of spacecraft equipped with specific instruments for various scientific and technological missions. These include communications satellites like Starlink; space stations such as the ISS; scientific satellites like the Hubble; Earth observation satellites from companies like Planet Labs, Umbra, and HawkEye 360; GPS; miniature CubeSats for education and research; and military/defense satellites.

Loading next visibility...
Identifier
61710, 2024-196D
Orbit
LEO
Last TLE update
2 days ago
Origin
Manufacturer
SpaceX/Seattle
Mission
Operational Commercial Communications
Bus & Motor
STARLINK V2M, Unknown motor
Mass
730 kg wet, ~700 kg dry
Launch date (UTC)
2024-10-30 (6 months ago)
Launch vehicle
FALCON 9
Launch site
Air Force Eastern Test Range (AFETR)
Object type
Payload
Rocket body
Debris
Shape & HBR
Box + 2 Pan, 29 m
Radar Cross Section
36.964 m², Large (>1 m²)

Expand to show TLE details & history

TLE from 2 days ago
0 STARLINK-32404
1 61710U 24196D   25128.14724994  .00002518  00000-0  97167-4 0  9995
2 61710  53.1594  80.7671 0001073 100.8206 259.2916 15.30182666 30398
Epoch: 2025-05-08T03:32Z
Definitive object data (Epoch: 2025-05-08T03:32:02.394Z)
Latitude
-0°
Longitude
161.5352°
Altitude
476.303 km
Speed
7.629 km/s
True Right ascension
05h 23m 04s
True Declination
0° 00' 00"
Sunlit
Object was in daylight at TLE epoch
Visualization TLE readout
Latitude
-4.42081°
Longitude
-22.29862°
Altitude
476.69 km
Speed
7.628 km/s
Apparent Right ascension
15h 16m 31s
Apparent Declination
-25° 12' 13"
Sunlit
Object is in full shadow
Visualization observer readout
Local Sidereal Time
00:34:08
Azimuth
280.98° WNW
Elevation
-53.148°
Doppler factor
1
Orbital elements
Apogee altitude
476.259 km
Perigee altitude
474.788 km
Semi-major axis
6,853.66 km
Eccentricity
0.0001073
Inclination
53.1594°
RAAN
80.7671°
Arg. of periapsis
100.8206°
True anomaly
259.27952°
Mean anomaly
259.2916°
Eccentric anomaly
259.28556°
Mean motion
3.82525 °/min
BSTAR
0.000097167
Orbital period
94.11 mins
Loading maneuver chart data...
Loading SW <> Apogee altitude chart data...
Loading historical data...
Loading historical data...
Loading historical data...
Loading historical data...
Loading historical data...
Loading historical data...
Loading historical data...

STARLINK-32404 Visibility forecast

Observer location: undefined°, undefined°

Span
Click to sort rows by Start time (UTC) header in descending order
Start Az.
Max El. time (UTC)
Max El. Az.
Max El.
End time (UTC)
End Az.
4 mins2025-05-09 22:00:40.452Z169.875° S2025-05-09 22:02:40.452Z133.845° SE17.762°2025-05-09 22:04:40.452Z93.788° ESE
5 mins2025-05-09 23:38:40.452Z259.196° W2025-05-09 23:40:40.452Z332.771° NNW37.361°2025-05-09 23:43:40.452Z39.377° NE
4 mins2025-05-10 04:35:40.452Z347.53° N2025-05-10 04:37:40.452Z32.901° NE20.961°2025-05-10 04:39:40.452Z72.295° E
5 mins2025-05-10 06:13:40.452Z294.447° NW2025-05-10 06:15:40.452Z213.326° SW40.336°2025-05-10 06:18:40.452Z145.749° SSE
|